This is the latest recevied weather packets stored in our database for station/object IW2NTF-3. If no packets are shown the sender has not sent any weather packets the latest 1 day(s).
| Time | Temp. | Humidity | Pressure | Rain* | Wind** | Luminosity | Snow |
|---|---|---|---|---|---|---|---|
| 1777992363 | 14.44° C | 85% | 1012.5 hPa | 0 mm | 0.89 m/s, 171° | 81 W/m² | - |
| 1777992303 | 14.44° C | 85% | 1012.5 hPa | 0 mm | 1.34 m/s, 171° | 81 W/m² | - |
| 1777992243 | 14.44° C | 85% | 1012.6 hPa | 0 mm | 1.34 m/s, 171° | 81 W/m² | - |
| 1777992183 | 14.44° C | 85% | 1012.6 hPa | 0 mm | 1.34 m/s, 169° | 81 W/m² | - |
| 1777992123 | 14.44° C | 85% | 1012.6 hPa | 0 mm | 1.34 m/s, 165° | 79 W/m² | - |
| 1777992063 | 14.44° C | 85% | 1012.6 hPa | 0 mm | 0.89 m/s, 164° | 76 W/m² | - |
| 1777992003 | 14.44° C | 85% | 1012.6 hPa | 0 mm | 0.89 m/s, 165° | 69 W/m² | - |
| 1777991943 | 14.44° C | 85% | 1012.6 hPa | 0 mm | 0.89 m/s, 168° | 56 W/m² | - |
| 1777991883 | 14.44° C | 85% | 1012.6 hPa | 0 mm | 0.89 m/s, 172° | 51 W/m² | - |
| 1777991823 | 14.44° C | 85% | 1012.6 hPa | 0 mm | 0.89 m/s, 177° | 47 W/m² | - |
| 1777991763 | 14.44° C | 85% | 1012.6 hPa | 0 mm | 0.89 m/s, 182° | 44 W/m² | - |
| 1777991704 | 14.44° C | 85% | 1012.6 hPa | 0 mm | 0.89 m/s, 188° | 39 W/m² | - |
| 1777991643 | 14.44° C | 85% | 1012.6 hPa | 0 mm | 0.89 m/s, 191° | 44 W/m² | - |
| 1777991583 | 14.44° C | 85% | 1012.6 hPa | 0 mm | 0.89 m/s, 196° | 47 W/m² | - |
| 1777991523 | 14.44° C | 85% | 1012.6 hPa | 0 mm | 0.89 m/s, 197° | 53 W/m² | - |
| 1777991463 | 14.44° C | 85% | 1012.6 hPa | 0 mm | 0.89 m/s, 196° | 58 W/m² | - |
| 1777991403 | 14.44° C | 85% | 1012.6 hPa | 0 mm | 0.89 m/s, 192° | 63 W/m² | - |
| 1777991343 | 14.44° C | 85% | 1012.6 hPa | 0 mm | 0.89 m/s, 187° | 65 W/m² | - |
| 1777991283 | 14.44° C | 85% | 1012.7 hPa | 0 mm | 0.89 m/s, 180° | 65 W/m² | - |
| 1777991223 | 14.44° C | 85% | 1012.7 hPa | 0 mm | 0.45 m/s, 173° | 65 W/m² | - |
| 1777991163 | 14.44° C | 85% | 1012.7 hPa | 0 mm | 0.45 m/s, 171° | 67 W/m² | - |
| 1777991103 | 14.44° C | 85% | 1012.7 hPa | 0 mm | 0.45 m/s, 167° | 69 W/m² | - |
| 1777991043 | 14.44° C | 85% | 1012.6 hPa | 0 mm | 0.89 m/s, 168° | 72 W/m² | - |
| 1777990983 | 14.44° C | 85% | 1012.6 hPa | 0 mm | 0.89 m/s, 165° | 76 W/m² | - |
| 1777990923 | 14.44° C | 85% | 1012.6 hPa | 0 mm | 0.89 m/s, 165° | 79 W/m² | - |
* Rain latest hour (hover to see other rain measurements)
** Current wind speed in m/s (hover to see current wind gust speed)